Regional Weather Roundup
Issued by NWS

Home | Current Version | Previous Version | Text Only | Print | Product List | Glossary Off
Versions: 1 2 3 4 5 6 7 8 9 10 11 12 13 14 15 16 17 18 19 20 21 22 23 24 25 26 27 28 29 30 31 32 33 34 35 36 37 38 39 40 41 42 43 44 45 46 47 48 49 50

735
ASUS43 KFSD 060610
RWRSD

WEATHER ROUNDUP FOR SOUTH DAKOTA
NATIONAL WEATHER SERVICE SIOUX FALLS SD
1200 AM CST SAT FEB 06 2016

NOTE: "FAIR" INDICATES FEW OR NO CLOUDS BELOW 12,000 FEET WITH NO
SIGNIFICANT WEATHER AND/OR OBSTRUCTIONS TO VISIBILITY.


SDZ001>005-009-010-012>017-060700-
NORTHWEST AND NORTH CENTRAL SOUTH DAKOTA

CITY           SKY/WX    TMP DP  RH WIND       PRES   REMARKS
BUFFALO          N/A     31  20  63 W13       29.98F WCI  21
FAITH            N/A     30  20  66 SW13      30.08F WCI  20
MOBRIDGE       CLEAR     28  23  81 SE7       30.05F WCI  21
$$

SDZ012>016-024>037-041>051-057-063-072>074-060700-
SOUTHWEST AND SOUTH CENTRAL SOUTH DAKOTA

CITY           SKY/WX    TMP DP  RH WIND       PRES   REMARKS
RAPID CTY ARPT CLEAR     22  15  75 CALM      30.13F
PIERRE         CLEAR     30  24  78 SW12      30.13F WCI  20
CUSTER         CLOUDY    26   9  48 S13G36    30.11F WCI  15
ELLSWORTH AFB  CLEAR     27  18  69 SW8       30.11F WCI  18
PHILIP         CLEAR     26  21  81 W6        30.15F WCI  19
PINE RIDGE     CLEAR     23  14  68 SW8       30.20S WCI  14
SPEARFISH      FAIR      37  16  41 SW21G29   30.09F
WINNER         FAIR      28  21  75 SW7       30.18F WCI  21
$$

SDZ004>011-016>023-039-040-060700-
NORTHEAST SOUTH DAKOTA

CITY           SKY/WX    TMP DP  RH WIND       PRES   REMARKS
ABERDEEN       CLEAR     20  15  81 S7        30.12F WCI  11
WATERTOWN      CLOUDY    16  13  88 S5        30.13S FOG     WCI   9
BROOKINGS      FOG       23  22  96 SW7       30.16F VSB 1/2 WCI  15
SISSETON         N/A     18  15  88 S5        30.11F WCI  11
$$

SDZ017-020-022-023-036>040-048>070-060700-
SOUTHEAST SOUTH DAKOTA

CITY           SKY/WX    TMP DP  RH WIND       PRES   REMARKS
SIOUX FALLS    FOG       23  22  96 CALM      30.20S VSB 1/16
HURON          CLEAR     25  21  85 S8        30.15F WCI  16
CHAMBERLAIN    CLEAR     25  23  91 SW6       30.18F WCI  18
MITCHELL       CLEAR     25  23  92 SW7       30.20F WCI  17
YANKTON        CLEAR     27  23  86 W7        30.23S WCI  19
$$

ABBREVIATIONS USED IN REMARKS
   TC - TEMPERATURE IN CELSIUS
  WCI - WIND CHILL INDEX
   HX - HEAT INDEX
  VSB - VISIBILITY





USA.gov is the U.S. government's official web portal to all federal, state and local government web resources and services.